owner,sensor,date,latitude,longitude,vertical_datum,mass_concentration_of_oxygen_in_sea_water,qcFlag 
SCCF RECON,ioos:station:SCCF:12:1,2011-05-01T00:00:00Z,26.4966,-82.1479,1.699,-9999.0,1111122 
SCCF RECON,ioos:station:SCCF:12:1,2011-05-01T01:00:00Z,26.4966,-82.1479,1.779,-9999.0,1111122 
SCCF RECON,ioos:station:SCCF:12:1,2011-05-01T02:00:00Z,26.4966,-82.1479,1.914,-9999.0,1111122 
SCCF RECON,ioos:station:SCCF:12:1,2011-05-01T03:00:00Z,26.4966,-82.1479,2.03,-9999.0,1111122 
SCCF RECON,ioos:station:SCCF:12:1,2011-05-01T04:00:00Z,26.4966,-82.1479,2.112,-9999.0,1111122 
SCCF RECON,ioos:station:SCCF:12:1,2011-05-01T05:00:00Z,26.4966,-82.1479,2.163,-9999.0,1111122 
SCCF RECON,ioos:station:SCCF:12:1,2011-05-01T06:00:00Z,26.4966,-82.1479,2.161,-9999.0,1111122 
SCCF RECON,ioos:station:SCCF:12:1,2011-05-01T07:00:00Z,26.4966,-82.1479,2.092,-9999.0,1111122 
SCCF RECON,ioos:station:SCCF:12:1,2011-05-01T08:00:00Z,26.4966,-82.1479,1.99,-9999.0,1111122 
SCCF RECON,ioos:station:SCCF:12:1,2011-05-01T09:00:00Z,26.4966,-82.1479,1.92,-9999.0,1111122 
SCCF RECON,ioos:station:SCCF:12:1,2011-05-01T10:00:00Z,26.4966,-82.1479,1.881,-9999.0,1111122 
SCCF RECON,ioos:station:SCCF:12:1,2011-05-01T11:00:00Z,26.4966,-82.1479,1.86,-9999.0,1111122 
SCCF RECON,ioos:station:SCCF:12:1,2011-05-01T12:00:00Z,26.4966,-82.1479,1.913,-9999.0,1111122 
SCCF RECON,ioos:station:SCCF:12:1,2011-05-01T13:00:00Z,26.4966,-82.1479,2.042,-9999.0,1111122 
SCCF RECON,ioos:station:SCCF:12:1,2011-05-01T14:00:00Z,26.4966,-82.1479,2.178,-9999.0,1111122 
SCCF RECON,ioos:station:SCCF:12:1,2011-05-01T15:00:00Z,26.4966,-82.1479,2.279,-9999.0,1111122 
SCCF RECON,ioos:station:SCCF:12:1,2011-05-01T16:00:00Z,26.4966,-82.1479,2.351,-9999.0,1111122 
SCCF RECON,ioos:station:SCCF:12:1,2011-05-01T17:00:00Z,26.4966,-82.1479,2.357,-9999.0,1111122 
SCCF RECON,ioos:station:SCCF:12:1,2011-05-01T18:00:00Z,26.4966,-82.1479,2.271,-9999.0,1111122 
SCCF RECON,ioos:station:SCCF:12:1,2011-05-01T19:00:00Z,26.4966,-82.1479,2.141,-9999.0,1111122 
SCCF RECON,ioos:station:SCCF:12:1,2011-05-01T20:00:00Z,26.4966,-82.1479,2.012,-9999.0,1111122 
SCCF RECON,ioos:station:SCCF:12:1,2011-05-01T21:00:00Z,26.4966,-82.1479,1.91,-9999.0,1111122 
SCCF RECON,ioos:station:SCCF:12:1,2011-05-01T22:00:00Z,26.4966,-82.1479,1.82,-9999.0,1111122 
SCCF RECON,ioos:station:SCCF:12:1,2011-05-01T23:00:00Z,26.4966,-82.1479,1.754,-9999.0,1111122 
SCCF RECON,ioos:station:SCCF:12:1,2011-05-02T00:00:00Z,26.4966,-82.1479,1.71,-9999.0,1111122 
SCCF RECON,ioos:station:SCCF:12:1,2011-05-02T01:00:00Z,26.4966,-82.1479,1.75,-9999.0,1111122 
SCCF RECON,ioos:station:SCCF:12:1,2011-05-02T02:00:00Z,26.4966,-82.1479,1.906,-9999.0,1111122 
SCCF RECON,ioos:station:SCCF:12:1,2011-05-02T03:00:00Z,26.4966,-82.1479,2.045,-9999.0,1111122 
SCCF RECON,ioos:station:SCCF:12:1,2011-05-02T04:00:00Z,26.4966,-82.1479,2.166,-9999.0,1111122 
SCCF RECON,ioos:station:SCCF:12:1,2011-05-02T05:00:00Z,26.4966,-82.1479,2.249,-9999.0,1111122 
SCCF RECON,ioos:station:SCCF:12:1,2011-05-02T06:00:00Z,26.4966,-82.1479,2.237,-9999.0,1111122 
SCCF RECON,ioos:station:SCCF:12:1,2011-05-02T07:00:00Z,26.4966,-82.1479,2.174,-9999.0,1111122 
SCCF RECON,ioos:station:SCCF:12:1,2011-05-02T08:00:00Z,26.4966,-82.1479,2.104,-9999.0,1111122 
SCCF RECON,ioos:station:SCCF:12:1,2011-05-02T09:00:00Z,26.4966,-82.1479,2.022,-9999.0,1111122 
SCCF RECON,ioos:station:SCCF:12:1,2011-05-02T10:00:00Z,26.4966,-82.1479,1.958,-9999.0,1111122 
SCCF RECON,ioos:station:SCCF:12:1,2011-05-02T11:00:00Z,26.4966,-82.1479,1.941,-9999.0,1111122 
SCCF RECON,ioos:station:SCCF:12:1,2011-05-02T12:00:00Z,26.4966,-82.1479,2.015,-9999.0,1111122 
SCCF RECON,ioos:station:SCCF:12:1,2011-05-02T13:00:00Z,26.4966,-82.1479,2.134,-9999.0,1111122 
SCCF RECON,ioos:station:SCCF:12:1,2011-05-02T14:00:00Z,26.4966,-82.1479,2.261,-9999.0,1111122 
SCCF RECON,ioos:station:SCCF:12:1,2011-05-02T15:00:00Z,26.4966,-82.1479,2.37,-9999.0,1111122 
SCCF RECON,ioos:station:SCCF:12:1,2011-05-02T16:00:00Z,26.4966,-82.1479,2.423,-9999.0,1111122 
SCCF RECON,ioos:station:SCCF:12:1,2011-05-02T17:00:00Z,26.4966,-82.1479,2.42,-9999.0,1111122 
SCCF RECON,ioos:station:SCCF:12:1,2011-05-02T18:00:00Z,26.4966,-82.1479,2.36,-9999.0,1111122 
SCCF RECON,ioos:station:SCCF:12:1,2011-05-02T19:00:00Z,26.4966,-82.1479,2.267,-9999.0,1111122 
SCCF RECON,ioos:station:SCCF:12:1,2011-05-02T20:00:00Z,26.4966,-82.1479,2.13,-9999.0,1111122 
SCCF RECON,ioos:station:SCCF:12:1,2011-05-02T21:00:00Z,26.4966,-82.1479,2.0,-9999.0,1111122 
SCCF RECON,ioos:station:SCCF:12:1,2011-05-02T22:00:00Z,26.4966,-82.1479,1.885,-9999.0,1111122 
SCCF RECON,ioos:station:SCCF:12:1,2011-05-02T23:00:00Z,26.4966,-82.1479,1.78,-9999.0,1111122 
SCCF RECON,ioos:station:SCCF:12:1,2011-05-03T00:00:00Z,26.4966,-82.1479,1.7,-9999.0,1111122 
SCCF RECON,ioos:station:SCCF:12:1,2011-05-03T01:00:00Z,26.4966,-82.1479,1.67,-9999.0,1111122 
SCCF RECON,ioos:station:SCCF:12:1,2011-05-03T02:00:00Z,26.4966,-82.1479,1.776,-9999.0,1111122 
SCCF RECON,ioos:station:SCCF:12:1,2011-05-03T03:00:00Z,26.4966,-82.1479,1.92,-9999.0,1111122 
SCCF RECON,ioos:station:SCCF:12:1,2011-05-03T04:00:00Z,26.4966,-82.1479,2.043,-9999.0,1111122 
SCCF RECON,ioos:station:SCCF:12:1,2011-05-03T05:00:00Z,26.4966,-82.1479,2.119,-9999.0,1111122 
SCCF RECON,ioos:station:SCCF:12:1,2011-05-03T06:00:00Z,26.4966,-82.1479,2.13,-9999.0,1111122 
SCCF RECON,ioos:station:SCCF:12:1,2011-05-03T07:00:00Z,26.4966,-82.1479,2.118,-9999.0,1111122 
SCCF RECON,ioos:station:SCCF:12:1,2011-05-03T08:00:00Z,26.4966,-82.1479,2.09,-9999.0,1111122 
SCCF RECON,ioos:station:SCCF:12:1,2011-05-03T09:00:00Z,26.4966,-82.1479,2.04,-9999.0,1111122 
SCCF RECON,ioos:station:SCCF:12:1,2011-05-03T10:00:00Z,26.4966,-82.1479,1.974,-9999.0,1111122 
SCCF RECON,ioos:station:SCCF:12:1,2011-05-03T11:00:00Z,26.4966,-82.1479,1.969,-9999.0,1111122 
SCCF RECON,ioos:station:SCCF:12:1,2011-05-03T12:00:00Z,26.4966,-82.1479,2.042,-9999.0,1111122 
SCCF RECON,ioos:station:SCCF:12:1,2011-05-03T13:00:00Z,26.4966,-82.1479,2.131,-9999.0,1111122 
SCCF RECON,ioos:station:SCCF:12:1,2011-05-03T14:00:00Z,26.4966,-82.1479,2.22,-9999.0,1111122 
SCCF RECON,ioos:station:SCCF:12:1,2011-05-03T15:00:00Z,26.4966,-82.1479,2.321,-9999.0,1111122 
SCCF RECON,ioos:station:SCCF:12:1,2011-05-03T16:00:00Z,26.4966,-82.1479,2.417,-9999.0,1111122 
SCCF RECON,ioos:station:SCCF:12:1,2011-05-03T17:00:00Z,26.4966,-82.1479,2.46,-9999.0,1111122 
SCCF RECON,ioos:station:SCCF:12:1,2011-05-03T18:00:00Z,26.4966,-82.1479,2.44,-9999.0,1111122 
SCCF RECON,ioos:station:SCCF:12:1,2011-05-03T19:00:00Z,26.4966,-82.1479,2.36,-9999.0,1111122 
SCCF RECON,ioos:station:SCCF:12:1,2011-05-03T20:00:00Z,26.4966,-82.1479,2.24,-9999.0,1111122 
SCCF RECON,ioos:station:SCCF:12:1,2011-05-03T21:00:00Z,26.4966,-82.1479,2.1,-9999.0,1111122 
SCCF RECON,ioos:station:SCCF:12:1,2011-05-03T22:00:00Z,26.4966,-82.1479,1.97,-9999.0,1111122 
SCCF RECON,ioos:station:SCCF:12:1,2011-05-03T23:00:00Z,26.4966,-82.1479,1.85,-9999.0,1111122 
SCCF RECON,ioos:station:SCCF:12:1,2011-05-04T00:00:00Z,26.4966,-82.1479,1.77,-9999.0,1111122 
SCCF RECON,ioos:station:SCCF:12:1,2011-05-04T01:00:00Z,26.4966,-82.1479,1.71,-9999.0,1111122 
SCCF RECON,ioos:station:SCCF:12:1,2011-05-04T02:00:00Z,26.4966,-82.1479,1.72,-9999.0,1111122 
SCCF RECON,ioos:station:SCCF:12:1,2011-05-04T03:00:00Z,26.4966,-82.1479,1.85,-9999.0,1111122 
SCCF RECON,ioos:station:SCCF:12:1,2011-05-04T04:00:00Z,26.4966,-82.1479,2.01,-9999.0,1111122 
SCCF RECON,ioos:station:SCCF:12:1,2011-05-04T05:00:00Z,26.4966,-82.1479,2.151,-9999.0,1111122 
SCCF RECON,ioos:station:SCCF:12:1,2011-05-04T06:00:00Z,26.4966,-82.1479,2.255,-9999.0,1111122 
SCCF RECON,ioos:station:SCCF:12:1,2011-05-04T07:00:00Z,26.4966,-82.1479,2.29,-9999.0,1111122 
SCCF RECON,ioos:station:SCCF:12:1,2011-05-04T08:00:00Z,26.4966,-82.1479,2.25,-9999.0,1111122 
SCCF RECON,ioos:station:SCCF:12:1,2011-05-04T09:00:00Z,26.4966,-82.1479,2.18,-9999.0,1111122 
SCCF RECON,ioos:station:SCCF:12:1,2011-05-04T10:00:00Z,26.4966,-82.1479,2.11,-9999.0,1111122 
SCCF RECON,ioos:station:SCCF:12:1,2011-05-04T11:00:00Z,26.4966,-82.1479,2.07,-9999.0,1111122 
SCCF RECON,ioos:station:SCCF:12:1,2011-05-04T12:00:00Z,26.4966,-82.1479,2.07,-9999.0,1111122 
SCCF RECON,ioos:station:SCCF:12:1,2011-05-04T13:00:00Z,26.4966,-82.1479,2.1,-9999.0,1111122 
SCCF RECON,ioos:station:SCCF:12:1,2011-05-04T14:00:00Z,26.4966,-82.1479,2.18,-9999.0,1111122 
SCCF RECON,ioos:station:SCCF:12:1,2011-05-04T15:00:00Z,26.4966,-82.1479,2.292,-9999.0,1111122 
SCCF RECON,ioos:station:SCCF:12:1,2011-05-04T16:00:00Z,26.4966,-82.1479,2.4,-9999.0,1111122 
SCCF RECON,ioos:station:SCCF:12:1,2011-05-04T17:00:00Z,26.4966,-82.1479,2.45,-9999.0,1111122 
SCCF RECON,ioos:station:SCCF:12:1,2011-05-04T18:00:00Z,26.4966,-82.1479,2.44,-9999.0,1111122 
SCCF RECON,ioos:station:SCCF:12:1,2011-05-04T19:00:00Z,26.4966,-82.1479,2.38,-9999.0,1111122 
SCCF RECON,ioos:station:SCCF:12:1,2011-05-04T20:00:00Z,26.4966,-82.1479,2.278,-9999.0,1111122 
SCCF RECON,ioos:station:SCCF:12:1,2011-05-04T21:00:00Z,26.4966,-82.1479,2.154,-9999.0,1111122 
SCCF RECON,ioos:station:SCCF:12:1,2011-05-04T22:00:00Z,26.4966,-82.1479,2.026,-9999.0,1111122 
SCCF RECON,ioos:station:SCCF:12:1,2011-05-04T23:00:00Z,26.4966,-82.1479,1.908,-9999.0,1111122 
SCCF RECON,ioos:station:SCCF:12:1,2011-05-05T00:00:00Z,26.4966,-82.1479,1.802,-9999.0,1111122 
SCCF RECON,ioos:station:SCCF:12:1,2011-05-05T01:00:00Z,26.4966,-82.1479,1.686,-9999.0,1111122 
SCCF RECON,ioos:station:SCCF:12:1,2011-05-05T02:00:00Z,26.4966,-82.1479,1.62,-9999.0,1111122 
SCCF RECON,ioos:station:SCCF:12:1,2011-05-05T03:00:00Z,26.4966,-82.1479,1.63,-9999.0,1111122 
SCCF RECON,ioos:station:SCCF:12:1,2011-05-05T04:00:00Z,26.4966,-82.1479,1.787,-9999.0,1111122 
SCCF RECON,ioos:station:SCCF:12:1,2011-05-05T05:00:00Z,26.4966,-82.1479,1.921,-9999.0,1111122 
SCCF RECON,ioos:station:SCCF:12:1,2011-05-05T06:00:00Z,26.4966,-82.1479,2.029,-9999.0,1111122 
SCCF RECON,ioos:station:SCCF:12:1,2011-05-05T07:00:00Z,26.4966,-82.1479,2.13,-9999.0,1111122 
SCCF RECON,ioos:station:SCCF:12:1,2011-05-05T08:00:00Z,26.4966,-82.1479,2.16,-9999.0,1111122 
SCCF RECON,ioos:station:SCCF:12:1,2011-05-05T09:00:00Z,26.4966,-82.1479,2.127,-9999.0,1111122 
SCCF RECON,ioos:station:SCCF:12:1,2011-05-05T10:00:00Z,26.4966,-82.1479,2.059,-9999.0,1111122 
SCCF RECON,ioos:station:SCCF:12:1,2011-05-05T11:00:00Z,26.4966,-82.1479,2.006,-9999.0,1111122 
SCCF RECON,ioos:station:SCCF:12:1,2011-05-05T12:00:00Z,26.4966,-82.1479,1.965,-9999.0,1111122 
SCCF RECON,ioos:station:SCCF:12:1,2011-05-05T13:00:00Z,26.4966,-82.1479,1.981,-9999.0,1111122 
SCCF RECON,ioos:station:SCCF:12:1,2011-05-05T14:00:00Z,26.4966,-82.1479,2.037,-9999.0,1111122 
SCCF RECON,ioos:station:SCCF:12:1,2011-05-05T15:00:00Z,26.4966,-82.1479,2.119,-9999.0,1111122 
SCCF RECON,ioos:station:SCCF:12:1,2011-05-05T16:00:00Z,26.4966,-82.1479,2.234,-9999.0,1111122 
SCCF RECON,ioos:station:SCCF:12:1,2011-05-05T17:00:00Z,26.4966,-82.1479,2.33,-9999.0,1111122 
SCCF RECON,ioos:station:SCCF:12:1,2011-05-05T18:00:00Z,26.4966,-82.1479,2.39,-9999.0,1111122 
SCCF RECON,ioos:station:SCCF:12:1,2011-05-05T19:00:00Z,26.4966,-82.1479,2.408,-9999.0,1111122 
SCCF RECON,ioos:station:SCCF:12:1,2011-05-05T20:00:00Z,26.4966,-82.1479,2.35,-9999.0,1111122 
SCCF RECON,ioos:station:SCCF:12:1,2011-05-05T21:00:00Z,26.4966,-82.1479,2.25,-9999.0,1111122 
SCCF RECON,ioos:station:SCCF:12:1,2011-05-05T22:00:00Z,26.4966,-82.1479,2.143,-9999.0,1111122 
SCCF RECON,ioos:station:SCCF:12:1,2011-05-05T23:00:00Z,26.4966,-82.1479,1.97,-9999.0,1111122 
SCCF RECON,ioos:station:SCCF:12:1,2011-05-06T00:00:00Z,26.4966,-82.1479,1.879,-9999.0,1111122 
SCCF RECON,ioos:station:SCCF:12:1,2011-05-06T01:00:00Z,26.4966,-82.1479,1.76,-9999.0,1111122 
SCCF RECON,ioos:station:SCCF:12:1,2011-05-06T02:00:00Z,26.4966,-82.1479,1.67,-9999.0,1111122 
SCCF RECON,ioos:station:SCCF:12:1,2011-05-06T03:00:00Z,26.4966,-82.1479,1.64,-9999.0,1111122 
SCCF RECON,ioos:station:SCCF:12:1,2011-05-06T04:00:00Z,26.4966,-82.1479,1.73,-9999.0,1111122 
SCCF RECON,ioos:station:SCCF:12:1,2011-05-06T05:00:00Z,26.4966,-82.1479,1.875,-9999.0,1111122 
SCCF RECON,ioos:station:SCCF:12:1,2011-05-06T06:00:00Z,26.4966,-82.1479,2.0,-9999.0,1111122 
SCCF RECON,ioos:station:SCCF:12:1,2011-05-06T07:00:00Z,26.4966,-82.1479,2.101,-9999.0,1111122 
SCCF RECON,ioos:station:SCCF:12:1,2011-05-06T08:00:00Z,26.4966,-82.1479,2.171,-9999.0,1111122 
SCCF RECON,ioos:station:SCCF:12:1,2011-05-06T09:00:00Z,26.4966,-82.1479,2.2,-9999.0,1111122 
SCCF RECON,ioos:station:SCCF:12:1,2011-05-06T10:00:00Z,26.4966,-82.1479,2.18,-9999.0,1111122 
SCCF RECON,ioos:station:SCCF:12:1,2011-05-06T11:00:00Z,26.4966,-82.1479,2.128,-9999.0,1111122 
SCCF RECON,ioos:station:SCCF:12:1,2011-05-06T12:00:00Z,26.4966,-82.1479,2.081,-9999.0,1111122 
SCCF RECON,ioos:station:SCCF:12:1,2011-05-06T13:00:00Z,26.4966,-82.1479,2.075,-9999.0,1111122 
SCCF RECON,ioos:station:SCCF:12:1,2011-05-06T14:00:00Z,26.4966,-82.1479,2.145,-9999.0,1111122 
SCCF RECON,ioos:station:SCCF:12:1,2011-05-06T15:00:00Z,26.4966,-82.1479,2.225,-9999.0,1111122 
SCCF RECON,ioos:station:SCCF:12:1,2011-05-06T16:00:00Z,26.4966,-82.1479,2.323,-9999.0,1111122 
SCCF RECON,ioos:station:SCCF:12:1,2011-05-06T17:00:00Z,26.4966,-82.1479,2.405,-9999.0,1111122 
SCCF RECON,ioos:station:SCCF:12:1,2011-05-06T18:00:00Z,26.4966,-82.1479,2.464,-9999.0,1111122 
SCCF RECON,ioos:station:SCCF:12:1,2011-05-06T19:00:00Z,26.4966,-82.1479,2.478,-9999.0,1111122 
SCCF RECON,ioos:station:SCCF:12:1,2011-05-06T20:00:00Z,26.4966,-82.1479,2.419,-9999.0,1111122 
SCCF RECON,ioos:station:SCCF:12:1,2011-05-06T21:00:00Z,26.4966,-82.1479,2.366,-9999.0,1111122 
SCCF RECON,ioos:station:SCCF:12:1,2011-05-06T22:00:00Z,26.4966,-82.1479,2.247,-9999.0,1111122 
SCCF RECON,ioos:station:SCCF:12:1,2011-05-06T23:00:00Z,26.4966,-82.1479,2.07,-9999.0,1111122 
SCCF RECON,ioos:station:SCCF:12:1,2011-05-07T00:00:00Z,26.4966,-82.1479,1.95,-9999.0,1111122 
SCCF RECON,ioos:station:SCCF:12:1,2011-05-07T01:00:00Z,26.4966,-82.1479,1.83,-9999.0,1111122 
SCCF RECON,ioos:station:SCCF:12:1,2011-05-07T02:00:00Z,26.4966,-82.1479,1.73,-9999.0,1111122 
SCCF RECON,ioos:station:SCCF:12:1,2011-05-07T03:00:00Z,26.4966,-82.1479,1.65,-9999.0,1111122 
SCCF RECON,ioos:station:SCCF:12:1,2011-05-07T04:00:00Z,26.4966,-82.1479,1.65,-9999.0,1111122 
SCCF RECON,ioos:station:SCCF:12:1,2011-05-07T05:00:00Z,26.4966,-82.1479,1.78,-9999.0,1111122 
SCCF RECON,ioos:station:SCCF:12:1,2011-05-07T06:00:00Z,26.4966,-82.1479,1.93,-9999.0,1111122 
SCCF RECON,ioos:station:SCCF:12:1,2011-05-07T07:00:00Z,26.4966,-82.1479,2.041,-9999.0,1111122 
SCCF RECON,ioos:station:SCCF:12:1,2011-05-07T08:00:00Z,26.4966,-82.1479,2.14,-9999.0,1111122 
SCCF RECON,ioos:station:SCCF:12:1,2011-05-07T09:00:00Z,26.4966,-82.1479,2.2,-9999.0,1111122 
SCCF RECON,ioos:station:SCCF:12:1,2011-05-07T10:00:00Z,26.4966,-82.1479,2.22,-9999.0,1111122 
SCCF RECON,ioos:station:SCCF:12:1,2011-05-07T11:00:00Z,26.4966,-82.1479,2.201,-9999.0,1111122 
SCCF RECON,ioos:station:SCCF:12:1,2011-05-07T12:00:00Z,26.4966,-82.1479,2.172,-9999.0,1111122 
SCCF RECON,ioos:station:SCCF:12:1,2011-05-07T13:00:00Z,26.4966,-82.1479,2.155,-9999.0,1111122 
SCCF RECON,ioos:station:SCCF:12:1,2011-05-07T14:00:00Z,26.4966,-82.1479,2.158,-9999.0,1111122 
SCCF RECON,ioos:station:SCCF:12:1,2011-05-07T15:00:00Z,26.4966,-82.1479,2.2,-9999.0,1111122 
SCCF RECON,ioos:station:SCCF:12:1,2011-05-07T16:00:00Z,26.4966,-82.1479,2.27,-9999.0,1111122 
SCCF RECON,ioos:station:SCCF:12:1,2011-05-07T17:00:00Z,26.4966,-82.1479,2.337,-9999.0,1111122 
SCCF RECON,ioos:station:SCCF:12:1,2011-05-07T18:00:00Z,26.4966,-82.1479,2.4,-9999.0,1111122 
SCCF RECON,ioos:station:SCCF:12:1,2011-05-07T19:00:00Z,26.4966,-82.1479,2.44,-9999.0,1111122 
SCCF RECON,ioos:station:SCCF:12:1,2011-05-07T20:00:00Z,26.4966,-82.1479,2.437,-9999.0,1111122 
SCCF RECON,ioos:station:SCCF:12:1,2011-05-07T21:00:00Z,26.4966,-82.1479,2.369,-9999.0,1111122 
SCCF RECON,ioos:station:SCCF:12:1,2011-05-07T22:00:00Z,26.4966,-82.1479,2.28,-9999.0,1111122 
SCCF RECON,ioos:station:SCCF:12:1,2011-05-07T23:00:00Z,26.4966,-82.1479,2.17,-9999.0,1111122 
SCCF RECON,ioos:station:SCCF:12:1,2011-05-08T00:00:00Z,26.4966,-82.1479,2.06,-9999.0,1111122 
SCCF RECON,ioos:station:SCCF:12:1,2011-05-08T01:00:00Z,26.4966,-82.1479,1.953,-9999.0,1111122 
SCCF RECON,ioos:station:SCCF:12:1,2011-05-08T02:00:00Z,26.4966,-82.1479,1.848,-9999.0,1111122 
SCCF RECON,ioos:station:SCCF:12:1,2011-05-08T03:00:00Z,26.4966,-82.1479,1.752,-9999.0,1111122 
SCCF RECON,ioos:station:SCCF:12:1,2011-05-08T04:00:00Z,26.4966,-82.1479,1.69,-9999.0,1111122 
SCCF RECON,ioos:station:SCCF:12:1,2011-05-08T05:00:00Z,26.4966,-82.1479,1.72,-9999.0,1111122 
SCCF RECON,ioos:station:SCCF:12:1,2011-05-08T06:00:00Z,26.4966,-82.1479,1.852,-9999.0,1111122 
SCCF RECON,ioos:station:SCCF:12:1,2011-05-08T07:00:00Z,26.4966,-82.1479,1.98,-9999.0,1111122 
SCCF RECON,ioos:station:SCCF:12:1,2011-05-08T08:00:00Z,26.4966,-82.1479,2.08,-9999.0,1111122 
SCCF RECON,ioos:station:SCCF:12:1,2011-05-08T09:00:00Z,26.4966,-82.1479,2.157,-9999.0,1111122 
SCCF RECON,ioos:station:SCCF:12:1,2011-05-08T10:00:00Z,26.4966,-82.1479,2.208,-9999.0,1111122 
SCCF RECON,ioos:station:SCCF:12:1,2011-05-08T11:00:00Z,26.4966,-82.1479,2.21,-9999.0,1111122 
SCCF RECON,ioos:station:SCCF:12:1,2011-05-08T12:00:00Z,26.4966,-82.1479,2.16,-9999.0,1111122 
SCCF RECON,ioos:station:SCCF:12:1,2011-05-08T13:00:00Z,26.4966,-82.1479,2.128,-9999.0,1111122 
SCCF RECON,ioos:station:SCCF:12:1,2011-05-08T14:00:00Z,26.4966,-82.1479,2.14,-9999.0,1111122 
SCCF RECON,ioos:station:SCCF:12:1,2011-05-08T15:00:00Z,26.4966,-82.1479,2.159,-9999.0,1111122 
SCCF RECON,ioos:station:SCCF:12:1,2011-05-08T16:00:00Z,26.4966,-82.1479,2.183,-9999.0,1111122 
SCCF RECON,ioos:station:SCCF:12:1,2011-05-08T17:00:00Z,26.4966,-82.1479,2.235,-9999.0,1111122 
SCCF RECON,ioos:station:SCCF:12:1,2011-05-08T18:00:00Z,26.4966,-82.1479,2.288,-9999.0,1111122 
SCCF RECON,ioos:station:SCCF:12:1,2011-05-08T19:00:00Z,26.4966,-82.1479,2.34,-9999.0,1111122 
SCCF RECON,ioos:station:SCCF:12:1,2011-05-08T20:00:00Z,26.4966,-82.1479,2.387,-9999.0,1111122 
SCCF RECON,ioos:station:SCCF:12:1,2011-05-08T21:00:00Z,26.4966,-82.1479,2.388,-9999.0,1111122 
SCCF RECON,ioos:station:SCCF:12:1,2011-05-08T22:00:00Z,26.4966,-82.1479,2.33,-9999.0,1111122 
SCCF RECON,ioos:station:SCCF:12:1,2011-05-08T23:00:00Z,26.4966,-82.1479,2.232,-9999.0,1111122 
SCCF RECON,ioos:station:SCCF:12:1,2011-05-09T00:00:00Z,26.4966,-82.1479,2.137,-9999.0,1111122 
SCCF RECON,ioos:station:SCCF:12:1,2011-05-09T01:00:00Z,26.4966,-82.1479,2.037,-9999.0,1111122 
SCCF RECON,ioos:station:SCCF:12:1,2011-05-09T02:00:00Z,26.4966,-82.1479,1.927,-9999.0,1111122 
SCCF RECON,ioos:station:SCCF:12:1,2011-05-09T03:00:00Z,26.4966,-82.1479,1.821,-9999.0,1111122 
SCCF RECON,ioos:station:SCCF:12:1,2011-05-09T04:00:00Z,26.4966,-82.1479,1.74,-9999.0,1111122 
SCCF RECON,ioos:station:SCCF:12:1,2011-05-09T05:00:00Z,26.4966,-82.1479,1.69,-9999.0,1111122 
SCCF RECON,ioos:station:SCCF:12:1,2011-05-09T06:00:00Z,26.4966,-82.1479,1.74,-9999.0,1111122 
SCCF RECON,ioos:station:SCCF:12:1,2011-05-09T07:00:00Z,26.4966,-82.1479,1.88,-9999.0,1111122 
SCCF RECON,ioos:station:SCCF:12:1,2011-05-09T08:00:00Z,26.4966,-82.1479,2.01,-9999.0,1111122 
SCCF RECON,ioos:station:SCCF:12:1,2011-05-09T09:00:00Z,26.4966,-82.1479,2.121,-9999.0,1111122 
SCCF RECON,ioos:station:SCCF:12:1,2011-05-09T10:00:00Z,26.4966,-82.1479,2.202,-9999.0,1111122 
SCCF RECON,ioos:station:SCCF:12:1,2011-05-09T11:00:00Z,26.4966,-82.1479,2.251,-9999.0,1111122 
SCCF RECON,ioos:station:SCCF:12:1,2011-05-09T12:00:00Z,26.4966,-82.1479,2.239,-9999.0,1111122 
SCCF RECON,ioos:station:SCCF:12:1,2011-05-09T13:00:00Z,26.4966,-82.1479,2.177,-9999.0,1111122 
SCCF RECON,ioos:station:SCCF:12:1,2011-05-09T14:00:00Z,26.4966,-82.1479,2.125,-9999.0,1111122 
SCCF RECON,ioos:station:SCCF:12:1,2011-05-09T15:00:00Z,26.4966,-82.1479,2.104,-9999.0,1111122 
SCCF RECON,ioos:station:SCCF:12:1,2011-05-09T16:00:00Z,26.4966,-82.1479,2.118,-9999.0,1111122 
SCCF RECON,ioos:station:SCCF:12:1,2011-05-09T17:00:00Z,26.4966,-82.1479,2.134,-9999.0,1111122 
SCCF RECON,ioos:station:SCCF:12:1,2011-05-09T18:00:00Z,26.4966,-82.1479,2.162,-9999.0,1111122 
SCCF RECON,ioos:station:SCCF:12:1,2011-05-09T19:00:00Z,26.4966,-82.1479,2.208,-9999.0,1111122 
SCCF RECON,ioos:station:SCCF:12:1,2011-05-09T20:00:00Z,26.4966,-82.1479,2.25,-9999.0,1111122 
SCCF RECON,ioos:station:SCCF:12:1,2011-05-09T21:00:00Z,26.4966,-82.1479,2.29,-9999.0,1111122 
SCCF RECON,ioos:station:SCCF:12:1,2011-05-09T22:00:00Z,26.4966,-82.1479,2.303,-9999.0,1111122 
SCCF RECON,ioos:station:SCCF:12:1,2011-05-09T23:00:00Z,26.4966,-82.1479,2.27,-9999.0,1111122 
SCCF RECON,ioos:station:SCCF:12:1,2011-05-10T00:00:00Z,26.4966,-82.1479,2.198,-9999.0,1111122 
SCCF RECON,ioos:station:SCCF:12:1,2011-05-10T01:00:00Z,26.4966,-82.1479,2.111,-9999.0,1111122 
SCCF RECON,ioos:station:SCCF:12:1,2011-05-10T02:00:00Z,26.4966,-82.1479,2.018,-9999.0,1111122 
SCCF RECON,ioos:station:SCCF:12:1,2011-05-10T03:00:00Z,26.4966,-82.1479,1.918,-9999.0,1111122 
SCCF RECON,ioos:station:SCCF:12:1,2011-05-10T04:00:00Z,26.4966,-82.1479,1.826,-9999.0,1111122 
SCCF RECON,ioos:station:SCCF:12:1,2011-05-10T05:00:00Z,26.4966,-82.1479,1.75,-9999.0,1111122 
SCCF RECON,ioos:station:SCCF:12:1,2011-05-10T06:00:00Z,26.4966,-82.1479,1.71,-9999.0,1111122 
SCCF RECON,ioos:station:SCCF:12:1,2011-05-10T07:00:00Z,26.4966,-82.1479,1.76,-9999.0,1111122 
SCCF RECON,ioos:station:SCCF:12:1,2011-05-10T08:00:00Z,26.4966,-82.1479,1.88,-9999.0,1111122 
SCCF RECON,ioos:station:SCCF:12:1,2011-05-10T09:00:00Z,26.4966,-82.1479,2.004,-9999.0,1111122 
SCCF RECON,ioos:station:SCCF:12:1,2011-05-10T10:00:00Z,26.4966,-82.1479,2.101,-9999.0,1111122 
SCCF RECON,ioos:station:SCCF:12:1,2011-05-10T11:00:00Z,26.4966,-82.1479,2.179,-9999.0,1111122 
SCCF RECON,ioos:station:SCCF:12:1,2011-05-10T12:00:00Z,26.4966,-82.1479,2.2,-9999.0,1111122 
SCCF RECON,ioos:station:SCCF:12:1,2011-05-10T13:00:00Z,26.4966,-82.1479,2.2,-9999.0,1111122 
SCCF RECON,ioos:station:SCCF:12:1,2011-05-10T14:00:00Z,26.4966,-82.1479,2.17,-9999.0,1111122 
SCCF RECON,ioos:station:SCCF:12:1,2011-05-10T15:00:00Z,26.4966,-82.1479,2.13,-9999.0,1111122 
SCCF RECON,ioos:station:SCCF:12:1,2011-05-10T16:00:00Z,26.4966,-82.1479,2.102,-9999.0,1111122 
SCCF RECON,ioos:station:SCCF:12:1,2011-05-10T17:00:00Z,26.4966,-82.1479,2.071,-9999.0,1111122 
SCCF RECON,ioos:station:SCCF:12:1,2011-05-10T18:00:00Z,26.4966,-82.1479,2.08,-9999.0,1111122 
SCCF RECON,ioos:station:SCCF:12:1,2011-05-10T19:00:00Z,26.4966,-82.1479,2.116,-9999.0,1111122 
SCCF RECON,ioos:station:SCCF:12:1,2011-05-10T20:00:00Z,26.4966,-82.1479,2.162,-9999.0,1111122 
SCCF RECON,ioos:station:SCCF:12:1,2011-05-10T21:00:00Z,26.4966,-82.1479,2.22,-9999.0,1111122 
SCCF RECON,ioos:station:SCCF:12:1,2011-05-10T22:00:00Z,26.4966,-82.1479,2.28,-9999.0,1111122 
SCCF RECON,ioos:station:SCCF:12:1,2011-05-10T23:00:00Z,26.4966,-82.1479,2.309,-9999.0,1111122 
SCCF RECON,ioos:station:SCCF:12:1,2011-05-11T00:00:00Z,26.4966,-82.1479,2.289,-9999.0,1111122 
SCCF RECON,ioos:station:SCCF:12:1,2011-05-11T01:00:00Z,26.4966,-82.1479,2.237,-9999.0,1111122 
SCCF RECON,ioos:station:SCCF:12:1,2011-05-11T02:00:00Z,26.4966,-82.1479,2.159,-9999.0,1111122 
SCCF RECON,ioos:station:SCCF:12:1,2011-05-11T03:00:00Z,26.4966,-82.1479,2.06,-9999.0,1111122 
SCCF RECON,ioos:station:SCCF:12:1,2011-05-11T04:00:00Z,26.4966,-82.1479,1.969,-9999.0,1111122 
SCCF RECON,ioos:station:SCCF:12:1,2011-05-11T05:00:00Z,26.4966,-82.1479,1.88,-9999.0,1111122 
SCCF RECON,ioos:station:SCCF:12:1,2011-05-11T06:00:00Z,26.4966,-82.1479,1.805,-9999.0,1111122 
SCCF RECON,ioos:station:SCCF:12:1,2011-05-11T07:00:00Z,26.4966,-82.1479,1.775,-9999.0,1111122 
SCCF RECON,ioos:station:SCCF:12:1,2011-05-11T08:00:00Z,26.4966,-82.1479,1.85,-9999.0,1111122 
SCCF RECON,ioos:station:SCCF:12:1,2011-05-11T09:00:00Z,26.4966,-82.1479,1.98,-9999.0,1111122 
SCCF RECON,ioos:station:SCCF:12:1,2011-05-11T10:00:00Z,26.4966,-82.1479,2.09,-9999.0,1111122 
SCCF RECON,ioos:station:SCCF:12:1,2011-05-11T11:00:00Z,26.4966,-82.1479,2.19,-9999.0,1111122 